Location: Pedimozza
(42.0500°N, 9.3500°E)
Time: 19:22:42
(UTC+00:00)

Okean 3 - Pass Details

Date: 19 August 2019
Orbit: 577 x 600 km, 82.5° (Epoch: 18 October)

Event Time Altitude Azimuth Distance (km) Brightness Sun altitude
Rises 20:16:20 0° 346° (NNW) 2,803 7.8 -20.1°
Reaches altitude 10° 20:18:35 10° 341° (NNW) 1,900 6.9 -20.4°
Maximum altitude 20:22:38 50° 266° (W) 746 4.2 -20.9°
Enters shadow 20:24:36 27° 205° (SSW) 1,134 4.7 -21.2°
